AAL73P YSSY-KLAX

Flight info

Callsign AAL73P
Flight time N/A
Altitude 31000
Route KEVIN7/16L NOBAR A579 JORDY DCT 3035S15956E 2904S16300E 2747S16527E/N0492F330 2425S17028E 2154S17334E 1955S17547E 1702S17843E 1348S17801W 1232S17641W 0826S17229W 0819S17222W 0557S17012W 0500S16919W/N0492F350 0322S16747W 0005N16429W 0304N16140W 0610N15844W 0915N15549W 1134N15336W 1217N15255W 1601N14848W/N0482F370 1735N14640W 1947N14311W 2242N13801W 2450N13409W 2738N12917W 2810N12822W DCT FOOTS DCT FICKY GOATZ2
Aircraft B77W/H-SDE1E2E3FGHIJ2J3J4J5M1RWXY/LB1D1

Departure

Time 2026-05-06 05:15
Airport Sydney Kingsford Smith International Airport (YSSY)

Arrival

Time N/A
Airport Los Angeles International Airport (KLAX)
Time Latitude Longitude Altitude Speed Heading
2026-05-06 04:46 -33.93402 151.16772 35 ft 0 kts 258°
2026-05-06 04:59 -33.93402 151.16773 35 ft 1 kts 258°
2026-05-06 05:00 -33.93397 151.16798 35 ft 3 kts 249°
2026-05-06 05:00 -33.93387 151.16823 32 ft 3 kts 241°
2026-05-06 05:00 -33.93377 151.16845 32 ft 3 kts 243°
2026-05-06 05:00 -33.93371 151.16868 32 ft 3 kts 291°
2026-05-06 05:01 -33.93384 151.16886 31 ft 3 kts 334°
2026-05-06 05:01 -33.93406 151.16896 32 ft 3 kts 345°
2026-05-06 05:01 -33.93416 151.16899 32 ft 3 kts 343°
2026-05-06 05:01 -33.93409 151.16897 34 ft 1 kts 348°
2026-05-06 05:04 -33.93408 151.16897 34 ft 0 kts 348°
2026-05-06 05:04 -33.93391 151.16892 31 ft 5 kts 348°
2026-05-06 05:05 -33.93347 151.16891 35 ft 7 kts
2026-05-06 05:05 -33.93304 151.16912 35 ft 7 kts 27°
2026-05-06 05:05 -33.93262 151.16936 34 ft 6 kts 23°
2026-05-06 05:05 -33.93225 151.16947 34 ft 4 kts
2026-05-06 05:06 -33.93220 151.16947 34 ft 0 kts
2026-05-06 05:08 -33.93203 151.16947 34 ft 5 kts 357°
2026-05-06 05:08 -33.93156 151.16937 34 ft 7 kts 348°
2026-05-06 05:08 -33.93106 151.16924 35 ft 7 kts 347°
2026-05-06 05:09 -33.93056 151.16911 35 ft 7 kts 348°
2026-05-06 05:09 -33.93010 151.16907 35 ft 7 kts 18°
2026-05-06 05:09 -33.92984 151.16952 35 ft 7 kts 74°
2026-05-06 05:09 -33.92974 151.17006 35 ft 5 kts 77°
2026-05-06 05:10 -33.92972 151.17016 35 ft 0 kts 77°
2026-05-06 05:12 -33.92969 151.17032 42 ft 4 kts 77°
2026-05-06 05:13 -33.92961 151.17075 35 ft 6 kts 78°
2026-05-06 05:13 -33.92953 151.17120 35 ft 6 kts 78°
2026-05-06 05:13 -33.92960 151.17163 35 ft 5 kts 133°
2026-05-06 05:13 -33.92988 151.17173 35 ft 7 kts 169°
2026-05-06 05:14 -33.93130 151.17209 35 ft 45 kts 168°
2026-05-06 05:14 -33.93686 151.17354 31 ft 117 kts 168°
2026-05-06 05:14 -33.94702 151.17618 34 ft 179 kts 168°
2026-05-06 05:14 -33.96043 151.17964 251 ft 203 kts 166°
2026-05-06 05:15 -33.97451 151.18288 715 ft 211 kts 179°
2026-05-06 05:15 -33.98932 151.18058 1146 ft 220 kts 188°
2026-05-06 05:15 -34.00455 151.17811 1741 ft 223 kts 186°
2026-05-06 05:15 -34.02067 151.17598 1946 ft 242 kts 185°
2026-05-06 05:16 -34.03756 151.17694 2135 ft 256 kts 162°
2026-05-06 05:16 -34.05483 151.18405 2433 ft 267 kts 162°
2026-05-06 05:16 -34.07297 151.19051 2983 ft 275 kts 165°
2026-05-06 05:16 -34.09155 151.19681 3618 ft 279 kts 163°
2026-05-06 05:17 -34.10896 151.20722 4119 ft 284 kts 138°
2026-05-06 05:17 -34.12089 151.22613 4707 ft 286 kts 111°
2026-05-06 05:17 -34.12474 151.24944 5315 ft 284 kts 87°
2026-05-06 05:17 -34.12362 151.27331 5905 ft 287 kts 84°
2026-05-06 05:18 -34.12191 151.29734 6560 ft 288 kts 83°
2026-05-06 05:18 -34.12012 151.32165 7138 ft 291 kts 83°
2026-05-06 05:18 -34.11538 151.34525 7546 ft 291 kts 57°
2026-05-06 05:18 -34.10234 151.36355 7985 ft 289 kts 39°
2026-05-06 05:19 -34.08733 151.37962 8459 ft 295 kts 40°
2026-05-06 05:19 -34.07214 151.39643 9059 ft 298 kts 40°
2026-05-06 05:19 -34.05698 151.41369 9622 ft 302 kts 41°
2026-05-06 05:19 -34.04175 151.43140 10151 ft 306 kts 42°
2026-05-06 05:20 -34.02608 151.44991 10351 ft 324 kts 42°
2026-05-06 05:20 -34.00963 151.46954 10506 ft 342 kts 43°
2026-05-06 05:20 -33.99227 151.49040 10651 ft 362 kts 43°
2026-05-06 05:20 -33.97409 151.51237 10929 ft 376 kts 43°
2026-05-06 05:21 -33.95541 151.53502 11405 ft 385 kts 43°
2026-05-06 05:21 -33.93641 151.55806 11977 ft 390 kts 43°